This demonstration page uses our WeatherBlox Daily Observations layout. Learn more.

38.88101, -77.10428

Hourly Observations for June 30, 2017

Temp ( °F °C ) Dew Point ( °F °C ) Humidity (%) Winds ( mph kmh ) Pressure ( in mb ) Visibility ( mi km ) Precip ( " mm )
12:52 am 00:52 Clear 78 25.6 63 17.2 60 60 S 14 22 30.06 1018 10 16.0934 0 0
1:52 am 01:52 Partly Cloudy 77 25 63 17.2 62 62 S 12 19 30.06 1018 10 16.0934 0 0
2:52 am 02:52 Mostly Clear 76 24.4 62 16.7 62 62 S 12 19 30.05 1018 10 16.0934 0 0
3:52 am 03:52 Partly Cloudy 75 23.9 63 17.2 66 66 S 13 20 30.04 1017 10 16.0934 0 0
4:52 am 04:52 Mostly Clear 74 23.3 62 16.7 67 67 S 12 19 30.04 1017 10 16.0934 0 0
5:52 am 05:52 Partly Cloudy 73 22.8 62 16.7 69 69 S 13 20 30.04 1017 10 16.0934 0 0
6:52 am 06:52 Partly Cloudy 73 22.8 62 16.7 69 69 S 8 13 30.04 1017 10 16.0934 0 0
7:52 am 07:52 Partly Cloudy 76 24.4 63 17.2 64 64 SSW 10 17 30.06 1018 10 16.0934 0 0
8:52 am 08:52 Mostly Cloudy 78 25.6 64 17.8 62 62 SSW 10 17 30.06 1018 10 16.0934 0 0
9:52 am 09:52 Mostly Cloudy 79 26.1 66 18.9 65 65 S 10 17 30.06 1018 10 16.0934 0 0
10:52 am 10:52 Partly Cloudy 83 28.3 67 19.4 59 59 S 10 17 30.05 1018 10 16.0934 0 0
11:52 am 11:52 Partly Cloudy 87 30.6 67 19.4 51 51 SSW 13 20 30.04 1017 10 16.0934 0 0
12:52 pm 12:52 Partly Cloudy 89 31.7 68 20 50 50 SSW 13 20 30.03 1017 10 16.0934 0 0
1:52 pm 13:52 Mostly Sunny 92 33.3 67 19.4 44 44 S 17 28 29.99 1016 10 16.0934 0 0
2:52 pm 14:52 Partly Cloudy 94 34.4 66 18.9 40 40 S 20 31 29.97 1015 10 16.0934 0 0
3:52 pm 15:52 Mostly Cloudy 91 32.8 65 18.3 42 42 SSW 17 28 29.96 1015 10 16.0934 0 0
4:52 pm 16:52 Mostly Cloudy 90 32.2 66 18.9 45 45 SSW 22 35 29.96 1015 10 16.0934 0 0
5:52 pm 17:52 Partly Cloudy 90 32.2 68 20 48 48 S 17 28 29.94 1014 10 16.0934 0 0
6:52 pm 18:52 Partly Cloudy 89 31.7 69 20.6 52 52 SSW 18 30 29.95 1014 10 16.0934 0 0
7:52 pm 19:52 Partly Cloudy 85 29.4 71 21.7 63 63 S 9 15 29.97 1015 10 16.0934 0 0
8:52 pm 20:52 Mostly Cloudy 85 29.4 70 21.1 61 61 SSW 13 20 29.98 1015 10 16.0934 0 0
9:52 pm 21:52 Mostly Cloudy 84 28.9 69 20.6 61 61 SW 13 20 30 1016 10 16.0934 0 0
10:52 pm 22:52 Mostly Cloudy 82 27.8 70 21.1 67 67 SSW 12 19 30 1016 10 16.0934 0 0
11:52 pm 23:52 Mostly Cloudy 81 27.2 71 21.7 72 72 S 10 17 29.99 1016 10 16.0934 0 0

Powered by AerisWeather